This is the latest recevied weather packets stored in our database for station/object W0CHP-13. If no packets are shown the sender has not sent any weather packets the latest 10 day(s).
| Time | Temp. | Humidity | Pressure | Rain* | Wind** | Luminosity | Snow |
|---|---|---|---|---|---|---|---|
| 1777906398 | 21.67° C | 32% | 995.8 hPa | 0 mm | - | 345 W/m² | - |
| 1777905797 | 21.67° C | 33% | 995.4 hPa | 0 mm | - | 345 W/m² | - |
| 1777905195 | 21.67° C | 31% | 995.4 hPa | 0 mm | - | 325 W/m² | - |
| 1777904597 | 21.67° C | 33% | 995.6 hPa | 0 mm | - | 284 W/m² | - |
| 1777903995 | 21.67° C | 34% | 995.8 hPa | 0 mm | - | 258 W/m² | - |
| 1777903398 | 20.56° C | 35% | 995.6 hPa | 0 mm | - | 300 W/m² | - |
| 1777902796 | 20° C | 34% | 995.4 hPa | 0 mm | - | 287 W/m² | - |
| 1777902198 | 18.89° C | 36% | 995.2 hPa | 0 mm | - | 192 W/m² | - |
| 1777901596 | 18.89° C | 35% | 995.4 hPa | 0 mm | - | 166 W/m² | - |
| 1777900999 | 18.33° C | 35% | 995.2 hPa | 0 mm | - | 250 W/m² | - |
| 1777900397 | 17.22° C | 37% | 995.4 hPa | 0 mm | - | 148 W/m² | - |
| 1777899795 | 16.11° C | 40% | 995.4 hPa | 0 mm | - | 111 W/m² | - |
| 1777899197 | 16.11° C | 40% | 995.4 hPa | 0 mm | - | 107 W/m² | - |
| 1777898595 | 15.56° C | 39% | 995.4 hPa | 0 mm | - | 97 W/m² | - |
| 1777897998 | 15.56° C | 39% | 995.6 hPa | 0 mm | - | 78 W/m² | - |
| 1777897396 | 15° C | 39% | 995.8 hPa | 0 mm | - | 63 W/m² | - |
| 1777896798 | 15° C | 39% | 995.8 hPa | 0 mm | - | 60 W/m² | - |
| 1777896196 | 14.44° C | 40% | 995.8 hPa | 0 mm | - | 48 W/m² | - |
| 1777895599 | 14.44° C | 40% | 995.9 hPa | 0 mm | - | 36 W/m² | - |
| 1777894997 | 14.44° C | 41% | 996.3 hPa | 0 mm | - | 30 W/m² | - |
| 1777894395 | 14.44° C | 40% | 996.1 hPa | 0 mm | - | 22 W/m² | - |
| 1777893797 | 13.89° C | 40% | 996.1 hPa | 0 mm | - | 14 W/m² | - |
| 1777893195 | 13.89° C | 41% | 996.1 hPa | 0 mm | - | 9 W/m² | - |
| 1777892597 | 13.89° C | 40% | 996.3 hPa | 0 mm | - | 5 W/m² | - |
| 1777891996 | 13.89° C | 41% | 996.1 hPa | 0 mm | - | 2 W/m² | - |
* Rain latest hour (hover to see other rain measurements)
** Current wind speed in m/s (hover to see current wind gust speed)